Volver al catálogo

ECHOSTAR 1

ActivoComunicacionesGEO
NORAD 23754·PAYLOAD·🇺🇸 United States

Lanzado Dec 28, 1995 desde Xichang Satellite Launch Center

Loading…

TLE

ActualizadoSource: Space-Track

Época: Sep 14, 2026, 10:51 UTC

1 23754U 95073A   26257.45223128 -.00000075  00000-0  00000-0 0  9997
2 23754   8.8328  61.8986 0001860 147.4877  46.3811  0.98931094 52882

Sigue ECHOSTAR 1 en tiempo real con AllMySat

Download on the App Store